�N����,�����b,�ŏ������i�x�j,���ϕ����i�x�j,�ő啗���i�x�j,�ŏ�����(m/s),���ϕ���(m/s),�ő啗��(m/s),�C��(���j,���x�i���j,�C��(hPa),�~�J��(mm),�~�J����(�b�j,�~�J���x(mm/h),�ő�~�J���x(mm/h),�~�Ђ傤��(hit/���u),�~�Ђ傤����(�b�j,�~�Ђ傤���x(hit/���uh),�ő�~�Ђ傤���x(hit/���uh),�q�[�^���x(���j,�q�[�^�[�d���iV),�d���d���iV),�Q�Ɠd���iV)
2013/09/04,09:40:01,337,352,004,3.1,3.3,3.5,28.2,67.1,1001.9,0.00,0,0.0,////,0.0,0,0.0,////,30.0,0.0,12.3,3.513
2013/09/04,09:50:01,332,345,010,2.8,3.4,4.3,28.4,65.8,1002.0,0.00,0,0.0,////,0.0,0,0.0,////,30.1,0.0,12.3,3.511
2013/09/04,10:00:01,334,339,345,4.8,5.4,6.0,28.4,65.1,1002.0,0.00,0,0.0,////,0.0,0,0.0,////,30.3,0.0,12.3,3.513
2013/09/04,10:10:01,346,357,006,4.1,4.3,4.7,28.4,63.4,1002.1,0.00,0,0.0,////,0.0,0,0.0,////,30.3,0.0,12.3,3.511
2013/09/04,10:20:01,336,357,019,2.5,2.9,3.6,28.6,64.8,1002.2,0.00,0,0.0,////,0.0,0,0.0,////,30.5,0.0,12.3,3.513
2013/09/04,10:30:01,346,347,349,5.4,6.3,7.0,28.8,65.6,1002.2,0.00,0,0.0,////,0.0,0,0.0,////,30.6,0.0,12.3,3.513
2013/09/04,10:40:01,338,342,344,3.7,4.2,4.7,28.5,64.9,1002.3,0.00,0,0.0,////,0.0,0,0.0,////,30.3,0.0,12.3,3.511
2013/09/04,10:50:01,346,351,359,6.0,6.4,6.9,28.9,63.8,1002.3,0.00,0,0.0,////,0.0,0,0.0,////,31.3,0.0,12.3,3.513
2013/09/04,11:00:01,016,020,024,3.4,3.9,4.7,28.8,62.6,1002.3,0.00,0,0.0,////,0.0,0,0.0,////,31.0,0.0,12.3,3.511
2013/09/04,11:10:01,337,346,351,4.4,4.9,5.4,29.0,61.8,1002.3,0.00,0,0.0,////,0.0,0,0.0,////,31.2,0.0,12.3,3.511
2013/09/04,11:20:01,340,346,353,4.6,5.2,5.8,29.2,63.0,1002.4,0.00,0,0.0,////,0.0,0,0.0,////,31.5,0.0,12.3,3.511
2013/09/04,11:30:01,355,000,009,2.7,3.5,4.5,29.3,63.3,1002.5,0.00,0,0.0,////,0.0,0,0.0,////,31.5,0.0,12.3,3.511
2013/09/04,11:40:01,338,343,345,3.8,4.2,4.5,29.2,63.1,1002.5,0.00,0,0.0,////,0.0,0,0.0,////,31.7,0.0,12.3,3.511
2013/09/04,11:50:01,332,336,343,3.2,4.6,6.2,29.4,63.4,1002.5,0.00,0,0.0,////,0.0,0,0.0,////,31.8,0.0,12.3,3.511
2013/09/04,12:00:01,346,347,348,3.4,3.9,4.3,28.9,62.7,1002.5,0.00,0,0.0,////,0.0,0,0.0,////,31.0,0.0,12.3,3.513
2013/09/04,12:10:01,006,008,010,2.8,3.3,4.0,29.5,62.6,1002.4,0.00,0,0.0,////,0.0,0,0.0,////,32.2,0.0,12.3,3.511
2013/09/04,12:20:01,339,345,348,2.8,3.2,3.5,29.7,61.1,1002.4,0.00,0,0.0,////,0.0,0,0.0,////,32.2,0.0,12.3,3.511
2013/09/04,12:30:01,002,008,018,3.6,4.3,5.2,29.2,61.5,1002.2,0.00,0,0.0,////,0.0,0,0.0,////,31.5,0.0,12.3,3.513
2013/09/04,12:40:01,002,009,013,5.2,5.4,5.6,29.1,62.7,1002.2,0.00,0,0.0,////,0.0,0,0.0,////,31.5,0.0,12.3,3.511
2013/09/04,12:50:01,341,354,009,4.5,4.9,5.4,29.4,62.6,1002.1,0.00,0,0.0,////,0.0,0,0.0,////,31.7,0.0,12.3,3.511
2013/09/04,13:00:01,006,013,018,4.7,5.4,6.1,29.0,61.0,1002.1,0.00,0,0.0,////,0.0,0,0.0,////,31.3,0.0,12.3,3.511
2013/09/04,13:10:01,011,012,014,5.8,6.2,6.8,29.1,60.8,1002.1,0.00,0,0.0,////,0.0,0,0.0,////,31.5,0.0,12.3,3.511
2013/09/04,13:20:01,016,029,041,4.8,5.2,5.6,29.4,60.2,1002.1,0.00,0,0.0,////,0.0,0,0.0,////,31.5,0.0,12.3,3.513
2013/09/04,13:30:01,004,012,025,3.5,4.1,5.0,29.1,62.5,1002.0,0.00,0,0.0,////,0.0,0,0.0,////,31.5,0.0,12.2,3.511
2013/09/04,13:40:01,014,021,031,3.0,3.6,4.1,29.3,60.6,1001.9,0.00,0,0.0,////,0.0,0,0.0,////,31.5,0.0,12.3,3.511
2013/09/04,13:50:01,001,006,010,4.4,4.6,4.8,29.2,61.7,1001.9,0.00,0,0.0,////,0.0,0,0.0,////,31.5,0.0,12.3,3.513
2013/09/04,14:00:01,352,000,005,4.5,5.1,5.5,29.4,63.0,1001.9,0.00,0,0.0,////,0.0,0,0.0,////,31.7,0.0,12.3,3.513
2013/09/04,14:10:01,357,002,006,3.7,4.3,4.9,29.3,62.5,1001.9,0.00,0,0.0,////,0.0,0,0.0,////,31.8,0.0,12.3,3.511
2013/09/04,14:20:01,010,015,022,4.3,4.7,5.1,29.1,63.1,1002.0,0.00,0,0.0,////,0.0,0,0.0,////,31.5,0.0,12.3,3.513
2013/09/04,14:30:01,013,017,020,4.9,5.1,5.5,29.2,64.8,1002.0,0.00,0,0.0,////,0.0,0,0.0,////,31.2,0.0,12.3,3.511
2013/09/04,14:40:01,007,008,008,5.7,6.0,6.1,28.7,69.1,1002.0,0.00,0,0.0,////,0.0,0,0.0,////,30.3,0.0,12.3,3.511
2013/09/04,14:50:01,002,007,011,3.0,3.9,4.9,28.4,67.2,1002.0,0.00,0,0.0,////,0.0,0,0.0,////,30.1,0.0,12.3,3.511
2013/09/04,15:00:01,010,020,031,2.6,3.1,3.4,28.7,65.6,1002.0,0.00,0,0.0,////,0.0,0,0.0,////,30.6,0.0,12.3,3.511
2013/09/04,15:10:01,007,008,009,4.5,5.7,6.4,28.8,64.2,1001.9,0.00,0,0.0,////,0.0,0,0.0,////,30.6,0.0,12.3,3.513
2013/09/04,15:20:01,008,015,021,3.6,3.8,4.0,28.7,66.2,1002.0,0.00,0,0.0,////,0.0,0,0.0,////,30.6,0.0,12.3,3.513
2013/09/04,15:30:01,000,007,017,6.1,6.3,6.5,28.7,68.1,1002.0,0.00,0,0.0,////,0.0,0,0.0,////,30.5,0.0,12.3,3.511
2013/09/04,15:40:01,005,007,009,3.2,3.8,4.5,28.4,66.9,1002.0,0.00,0,0.0,////,0.0,0,0.0,////,30.0,0.0,12.3,3.513
2013/09/04,15:50:01,003,014,033,2.6,2.8,3.0,28.5,66.4,1002.0,0.00,0,0.0,////,0.0,0,0.0,////,30.1,0.0,12.3,3.513
2013/09/04,16:00:01,344,351,355,3.1,3.3,3.5,28.5,66.7,1001.9,0.00,0,0.0,////,0.0,0,0.0,////,30.1,0.0,12.2,3.514
2013/09/04,16:10:01,001,005,009,3.9,4.4,4.7,28.7,66.7,1001.9,0.00,0,0.0,////,0.0,0,0.0,////,30.3,0.0,12.3,3.511
2013/09/04,16:20:01,011,022,030,3.0,3.5,4.0,28.3,67.0,1001.8,0.00,0,0.0,////,0.0,0,0.0,////,30.0,0.0,12.3,3.513
2013/09/04,16:30:01,015,019,028,3.5,4.0,4.3,28.4,66.5,1001.8,0.00,0,0.0,////,0.0,0,0.0,////,29.8,0.0,12.3,3.511
2013/09/04,16:40:01,359,011,022,2.2,2.8,3.5,28.3,67.7,1001.7,0.00,0,0.0,////,0.0,0,0.0,////,30.0,0.0,12.3,3.511
2013/09/04,16:50:01,353,006,018,2.8,2.8,3.0,28.1,67.8,1001.8,0.00,0,0.0,////,0.0,0,0.0,////,29.3,0.0,12.3,3.513
2013/09/04,17:00:01,001,008,012,2.4,3.1,3.7,28.0,67.1,1001.8,0.00,0,0.0,////,0.0,0,0.0,////,29.3,0.0,12.3,3.513
2013/09/04,17:10:01,006,016,025,3.0,3.2,3.4,28.0,66.9,1001.9,0.00,0,0.0,////,0.0,0,0.0,////,28.9,0.0,12.3,3.513
2013/09/04,17:20:01,002,007,013,3.6,3.8,3.9,27.9,68.3,1002.0,0.00,0,0.0,////,0.0,0,0.0,////,28.9,0.0,12.3,3.513
2013/09/04,17:30:01,354,358,001,1.7,2.1,2.4,27.8,68.9,1002.0,0.00,0,0.0,////,0.0,0,0.0,////,28.6,0.0,12.3,3.521
2013/09/04,17:40:01,000,007,013,3.7,3.8,4.0,27.8,70.6,1002.0,0.00,0,0.0,////,0.0,0,0.0,////,28.4,0.0,12.3,3.514
2013/09/04,17:50:01,359,000,001,2.9,3.2,3.4,27.6,70.4,1001.9,0.00,0,0.0,////,0.0,0,0.0,////,27.9,0.0,12.3,3.515
2013/09/04,18:00:01,352,354,356,3.3,3.6,3.7,27.5,70.9,1002.0,0.00,0,0.0,////,0.0,0,0.0,////,27.9,0.0,12.3,3.514
2013/09/04,18:10:01,001,013,024,2.5,2.9,3.4,27.4,71.8,1002.1,0.00,0,0.0,////,0.0,0,0.0,////,27.2,0.0,12.3,3.514
2013/09/04,18:20:01,351,359,004,3.6,4.1,4.5,27.3,71.8,1002.1,0.00,0,0.0,////,0.0,0,0.0,////,26.8,0.0,12.3,3.511
2013/09/04,18:30:01,023,026,028,3.3,3.5,3.9,27.3,72.2,1002.1,0.00,0,0.0,////,0.0,0,0.0,////,26.7,0.0,12.4,3.514
2013/09/04,18:40:01,354,002,013,2.2,3.3,4.5,27.2,72.7,1002.1,0.00,0,0.0,////,0.0,0,0.0,////,26.2,0.0,12.3,3.513
2013/09/04,18:50:01,342,346,352,2.8,3.1,3.5,27.1,72.7,1002.1,0.00,0,0.0,////,0.0,0,0.0,////,26.0,0.0,12.3,3.514
2013/09/04,19:00:01,344,008,025,2.2,2.6,3.0,27.0,72.7,1002.3,0.00,0,0.0,////,0.0,0,0.0,////,26.0,0.0,12.3,3.515
2013/09/04,19:10:01,007,011,017,3.9,4.3,4.6,27.0,71.1,1002.4,0.00,0,0.0,////,0.0,0,0.0,////,26.0,0.0,12.3,3.513
2013/09/04,19:20:01,010,013,015,2.9,3.0,3.2,27.1,72.0,1002.5,0.00,0,0.0,////,0.0,0,0.0,////,26.0,0.0,12.3,3.513
2013/09/04,19:30:01,005,010,014,3.8,4.4,4.9,27.0,72.4,1002.6,0.00,0,0.0,////,0.0,0,0.0,////,26.0,0.0,12.3,3.515
2013/09/04,19:40:01,344,356,008,3.2,3.6,3.9,27.1,72.8,1002.6,0.00,0,0.0,////,0.0,0,0.0,////,26.0,0.0,12.3,3.513
2013/09/04,19:50:01,005,012,015,3.0,3.5,4.2,27.0,73.9,1002.7,0.00,0,0.0,////,0.0,0,0.0,////,26.0,0.0,12.3,3.514
2013/09/04,20:00:01,314,338,354,2.5,2.6,2.6,27.0,73.1,1002.8,0.00,0,0.0,////,0.0,0,0.0,////,26.0,0.0,12.3,3.514
2013/09/04,20:10:01,348,355,002,3.4,3.6,4.0,27.0,73.8,1003.0,0.00,0,0.0,////,0.0,0,0.0,////,26.0,0.0,12.3,3.515
2013/09/04,20:20:01,345,345,345,3.0,3.4,3.7,27.1,76.1,1003.2,0.00,0,0.0,////,0.0,0,0.0,////,26.0,0.0,12.3,3.514
2013/09/04,20:30:01,351,002,011,4.4,4.9,5.5,27.1,76.4,1003.4,0.00,0,0.0,////,0.0,0,0.0,////,26.2,0.0,12.3,3.514
2013/09/04,20:40:01,008,019,025,3.8,4.2,4.4,27.0,70.4,1003.5,0.00,0,0.0,////,0.0,0,0.0,////,26.2,0.0,12.3,3.515
2013/09/04,20:50:01,006,010,015,5.5,5.9,6.2,27.2,72.9,1003.5,0.00,0,0.0,////,0.0,0,0.0,////,26.2,0.0,12.3,3.514
2013/09/04,21:00:01,345,351,001,4.6,5.2,5.5,27.1,72.3,1003.6,0.00,0,0.0,////,0.0,0,0.0,////,26.2,0.0,12.3,3.514
2013/09/04,21:10:01,002,010,017,2.5,3.1,3.8,27.0,73.6,1003.6,0.00,0,0.0,////,0.0,0,0.0,////,26.0,0.0,12.3,3.511
2013/09/04,21:20:01,353,003,013,4.0,4.1,4.4,27.0,73.3,1003.6,0.00,0,0.0,////,0.0,0,0.0,////,26.0,0.0,12.3,3.515
2013/09/04,21:30:01,351,353,358,5.7,5.7,5.8,27.0,72.4,1003.6,0.00,0,0.0,////,0.0,0,0.0,////,26.2,0.0,12.3,3.515
2013/09/04,21:40:01,017,020,022,4.0,4.7,5.5,27.0,72.7,1003.7,0.00,0,0.0,////,0.0,0,0.0,////,26.0,0.0,12.3,3.514
2013/09/04,21:50:01,018,024,034,2.7,3.6,4.4,27.0,74.0,1003.7,0.00,0,0.0,////,0.0,0,0.0,////,25.8,0.0,12.3,3.514
2013/09/04,22:00:01,343,357,008,5.0,5.8,6.7,26.9,73.1,1003.7,0.00,0,0.0,////,0.0,0,0.0,////,25.8,0.0,12.3,3.514
2013/09/04,22:10:01,002,009,018,3.6,4.2,4.7,26.9,72.5,1003.7,0.00,0,0.0,////,0.0,0,0.0,////,26.0,0.0,12.3,3.514
2013/09/04,22:20:01,012,017,024,4.0,4.2,4.5,27.0,73.6,1003.8,0.00,0,0.0,////,0.0,0,0.0,////,25.8,0.0,12.3,3.513
2013/09/04,22:30:01,010,011,012,3.7,4.0,4.3,26.9,73.0,1003.8,0.00,0,0.0,////,0.0,0,0.0,////,25.8,0.0,12.3,3.514
2013/09/04,22:40:01,357,005,015,4.2,4.5,4.8,26.9,72.4,1003.8,0.00,0,0.0,////,0.0,0,0.0,////,26.0,0.0,12.3,3.514
2013/09/04,22:50:01,359,008,026,4.3,4.7,5.2,27.0,73.3,1003.9,0.00,0,0.0,////,0.0,0,0.0,////,26.0,0.0,12.3,3.515
2013/09/04,23:00:01,355,359,005,3.2,3.4,3.6,26.9,72.6,1003.9,0.00,0,0.0,////,0.0,0,0.0,////,26.0,0.0,12.3,3.515
2013/09/04,23:10:01,014,024,040,2.3,2.9,3.9,27.0,73.9,1003.9,0.00,0,0.0,////,0.0,0,0.0,////,26.2,0.0,12.3,3.515
2013/09/04,23:20:01,041,050,059,2.1,2.8,3.5,26.9,74.2,1003.9,0.00,0,0.0,////,0.0,0,0.0,////,26.0,0.0,12.3,3.516
2013/09/04,23:30:01,004,010,013,4.7,5.2,5.7,27.0,74.5,1003.9,0.00,0,0.0,////,0.0,0,0.0,////,26.0,0.0,12.3,3.514
2013/09/04,23:40:01,024,026,028,3.9,4.0,4.1,27.0,72.8,1003.9,0.00,0,0.0,////,0.0,0,0.0,////,26.2,0.0,12.3,3.515
2013/09/04,23:50:01,013,017,019,4.0,4.2,4.5,27.0,73.5,1003.9,0.00,0,0.0,////,0.0,0,0.0,////,25.8,0.0,12.3,3.513
2013/09/05,00:00:01,015,035,047,1.1,1.8,2.3,26.9,74.7,1003.9,0.00,0,0.0,////,0.0,0,0.0,////,25.8,0.0,12.3,3.516
2013/09/05,00:10:01,006,013,017,3.6,4.0,4.3,26.9,72.8,1003.9,0.00,0,0.0,////,0.0,0,0.0,////,25.8,0.0,12.3,3.516
2013/09/05,00:20:01,012,023,034,2.3,2.5,2.8,26.9,74.3,1003.8,0.00,0,0.0,////,0.0,0,0.0,////,26.0,0.0,12.3,3.515
2013/09/05,00:30:01,019,030,040,4.2,4.6,5.1,27.0,74.2,1003.8,0.00,0,0.0,////,0.0,0,0.0,////,26.0,0.0,12.3,3.514
2013/09/05,00:40:01,020,028,039,4.2,4.6,5.2,26.9,73.6,1003.8,0.00,0,0.0,////,0.0,0,0.0,////,25.8,0.0,12.3,3.511
2013/09/05,00:50:01,003,013,024,2.6,3.2,3.6,26.9,73.6,1003.8,0.00,0,0.0,////,0.0,0,0.0,////,25.8,0.0,12.3,3.513
2013/09/05,01:00:01,016,025,043,3.0,3.7,4.3,26.9,74.3,1003.8,0.00,0,0.0,////,0.0,0,0.0,////,25.8,0.0,12.3,3.514
2013/09/05,01:10:01,019,030,053,2.8,3.5,4.0,26.9,73.1,1003.8,0.00,0,0.0,////,0.0,0,0.0,////,25.8,0.0,12.3,3.518
2013/09/05,01:20:01,356,012,020,2.4,3.1,4.1,26.9,73.5,1003.9,0.00,0,0.0,////,0.0,0,0.0,////,26.0,0.0,12.3,3.516
2013/09/05,01:30:01,013,026,050,2.5,3.3,4.3,26.9,72.6,1003.9,0.00,0,0.0,////,0.0,0,0.0,////,25.8,0.0,12.3,3.516
2013/09/05,01:40:01,010,018,025,4.0,4.6,5.1,26.8,72.5,1003.9,0.00,0,0.0,////,0.0,0,0.0,////,25.8,0.0,12.3,3.513
2013/09/05,01:50:01,006,014,021,3.6,4.5,5.5,26.8,72.4,1003.9,0.00,0,0.0,////,0.0,0,0.0,////,25.8,0.0,12.3,3.515
2013/09/05,02:00:01,006,017,028,1.5,2.0,2.3,26.8,73.8,1003.8,0.00,0,0.0,////,0.0,0,0.0,////,25.8,0.0,12.3,3.514
2013/09/05,02:10:01,034,038,044,3.3,3.7,4.2,26.8,74.6,1003.7,0.00,0,0.0,////,0.0,0,0.0,////,25.6,0.0,12.3,3.515
2013/09/05,02:20:01,034,043,048,3.3,4.4,5.7,26.8,73.8,1003.8,0.00,0,0.0,////,0.0,0,0.0,////,25.8,0.0,12.3,3.515
2013/09/05,02:30:01,013,026,040,3.8,4.4,4.9,26.9,73.7,1003.7,0.00,0,0.0,////,0.0,0,0.0,////,25.8,0.0,12.3,3.515
2013/09/05,02:40:01,075,083,091,2.5,2.9,3.3,26.8,72.2,1003.6,0.00,0,0.0,////,0.0,0,0.0,////,26.0,0.0,12.3,3.515
2013/09/05,02:50:01,015,021,028,5.5,6.1,6.6,26.8,73.6,1003.7,0.00,0,0.0,////,0.0,0,0.0,////,25.8,0.0,12.3,3.513
2013/09/05,03:00:01,028,032,035,5.4,5.7,6.3,26.8,74.1,1003.7,0.00,0,0.0,////,0.0,0,0.0,////,25.8,0.0,12.3,3.515
2013/09/05,03:10:01,013,024,033,4.8,5.8,6.4,26.7,72.3,1003.6,0.00,0,0.0,////,0.0,0,0.0,////,25.8,0.0,12.3,3.515
2013/09/05,03:20:01,054,063,068,3.7,3.9,4.1,26.7,73.7,1003.7,0.00,0,0.0,////,0.0,0,0.0,////,25.6,0.0,12.3,3.515
2013/09/05,03:30:01,046,053,061,2.1,2.6,2.9,26.7,73.5,1003.7,0.00,0,0.0,////,0.0,0,0.0,////,25.6,0.0,12.3,3.516
2013/09/05,03:40:01,031,033,035,4.5,4.8,5.1,26.7,73.4,1003.6,0.00,0,0.0,////,0.0,0,0.0,////,25.5,0.0,12.3,3.516
2013/09/05,03:50:01,026,033,043,2.9,3.2,3.4,26.6,73.6,1003.5,0.00,0,0.0,////,0.0,0,0.0,////,25.6,0.0,12.3,3.513
2013/09/05,04:00:01,017,037,071,2.6,2.9,3.2,26.6,74.2,1003.5,0.00,0,0.0,////,0.0,0,0.0,////,25.8,0.0,12.3,3.514
2013/09/05,04:10:01,073,079,084,2.2,2.7,3.3,26.5,72.8,1003.5,0.00,0,0.0,////,0.0,0,0.0,////,25.5,0.0,12.3,3.515
2013/09/05,04:20:01,030,040,053,3.2,3.6,4.1,26.4,73.9,1003.6,0.00,0,0.0,////,0.0,0,0.0,////,25.5,0.0,12.3,3.514
2013/09/05,04:30:01,021,026,035,3.7,4.1,4.5,26.5,72.7,1003.6,0.00,0,0.0,////,0.0,0,0.0,////,25.3,0.0,12.3,3.514
2013/09/05,04:40:01,039,043,048,3.5,4.2,4.8,26.5,73.8,1003.6,0.00,0,0.0,////,0.0,0,0.0,////,25.3,0.0,12.3,3.515
2013/09/05,04:50:01,027,035,049,1.8,1.9,2.1,26.3,73.0,1003.7,0.00,0,0.0,////,0.0,0,0.0,////,25.3,0.0,12.3,3.514
2013/09/05,05:00:01,033,043,048,2.9,3.9,4.5,26.3,74.9,1003.7,0.00,0,0.0,////,0.0,0,0.0,////,25.1,0.0,12.3,3.511
2013/09/05,05:10:01,047,057,073,1.5,2.0,2.3,26.4,73.3,1003.7,0.00,0,0.0,////,0.0,0,0.0,////,25.1,0.0,12.3,3.513
2013/09/05,05:20:01,022,025,027,3.6,3.9,4.3,26.4,73.0,1003.8,0.00,0,0.0,////,0.0,0,0.0,////,25.3,0.0,12.3,3.518
2013/09/05,05:30:01,029,042,058,2.7,3.0,3.4,26.3,71.8,1003.8,0.00,0,0.0,////,0.0,0,0.0,////,25.3,0.0,12.3,3.514
2013/09/05,05:40:01,061,065,069,2.0,2.5,3.0,26.4,72.6,1003.7,0.00,0,0.0,////,0.0,0,0.0,////,25.3,0.0,12.3,3.514
2013/09/05,05:50:01,354,012,022,1.5,2.1,3.1,26.4,73.3,1003.9,0.00,0,0.0,////,0.0,0,0.0,////,25.5,0.0,12.3,3.514
2013/09/05,06:00:01,030,042,049,3.5,4.5,5.0,26.4,71.3,1003.9,0.00,0,0.0,////,0.0,0,0.0,////,25.3,0.0,12.3,3.514
2013/09/05,06:10:01,025,042,066,2.3,2.9,3.6,26.3,72.8,1004.0,0.00,0,0.0,////,0.0,0,0.0,////,25.3,0.0,12.3,3.514
2013/09/05,06:20:01,353,028,058,1.2,1.4,1.7,26.4,71.8,1004.0,0.00,0,0.0,////,0.0,0,0.0,////,25.3,0.0,12.3,3.514
2013/09/05,06:30:01,032,040,051,1.2,1.3,1.4,26.6,73.4,1004.1,0.00,0,0.0,////,0.0,0,0.0,////,25.6,0.0,12.3,3.515
2013/09/05,06:40:01,038,040,041,3.9,4.1,4.4,26.6,71.5,1004.2,0.00,0,0.0,////,0.0,0,0.0,////,26.0,0.0,12.3,3.513
2013/09/05,06:50:01,008,024,044,2.8,3.2,3.9,26.8,70.6,1004.3,0.00,0,0.0,////,0.0,0,0.0,////,26.7,0.0,12.3,3.514
2013/09/05,07:00:01,026,034,041,4.0,4.5,4.8,26.9,71.2,1004.4,0.00,0,0.0,////,0.0,0,0.0,////,26.7,0.0,12.3,3.515
2013/09/05,07:10:01,025,042,057,3.7,4.6,5.3,26.8,70.6,1004.5,0.00,0,0.0,////,0.0,0,0.0,////,26.5,0.0,12.3,3.511
2013/09/05,07:20:01,037,043,052,2.8,3.1,3.4,27.1,71.6,1004.6,0.00,0,0.0,////,0.0,0,0.0,////,27.2,0.0,12.3,3.513
2013/09/05,07:30:01,038,057,081,3.5,3.8,4.2,27.2,70.2,1004.7,0.00,0,0.0,////,0.0,0,0.0,////,27.9,0.0,12.3,3.515
2013/09/05,07:40:01,039,040,040,3.6,4.2,4.7,27.4,69.4,1004.7,0.00,0,0.0,////,0.0,0,0.0,////,27.9,0.0,12.3,3.515
2013/09/05,07:50:01,030,055,071,1.5,2.0,2.3,27.0,69.1,1004.8,0.00,0,0.0,////,0.0,0,0.0,////,27.4,0.0,12.3,3.511
2013/09/05,08:00:01,019,036,046,3.1,3.3,3.5,27.6,68.8,1004.9,0.00,0,0.0,////,0.0,0,0.0,////,28.4,0.0,12.3,3.515
2013/09/05,08:10:01,022,037,047,3.7,3.9,4.4,27.9,68.7,1005.0,0.00,0,0.0,////,0.0,0,0.0,////,28.9,0.0,12.3,3.514
2013/09/05,08:20:01,013,019,029,4.0,4.3,4.7,28.0,68.1,1005.2,0.00,0,0.0,////,0.0,0,0.0,////,29.3,0.0,12.3,3.515
2013/09/05,08:30:01,045,049,053,3.7,4.1,4.5,28.1,65.6,1005.3,0.00,0,0.0,////,0.0,0,0.0,////,29.6,0.0,12.3,3.513
2013/09/05,08:40:01,025,034,042,3.5,3.9,4.3,28.1,64.6,1005.4,0.00,0,0.0,////,0.0,0,0.0,////,29.6,0.0,12.3,3.514
2013/09/05,08:50:01,019,027,041,2.5,2.7,2.9,28.2,64.4,1005.6,0.00,0,0.0,////,0.0,0,0.0,////,29.8,0.0,12.3,3.514
2013/09/05,09:00:01,020,033,055,2.5,2.8,3.3,28.3,61.2,1005.6,0.00,0,0.0,////,0.0,0,0.0,////,29.8,0.0,12.3,3.511
2013/09/05,09:10:01,035,042,051,4.5,5.0,5.5,28.3,61.9,1005.6,0.00,0,0.0,////,0.0,0,0.0,////,30.1,0.0,12.3,3.514
2013/09/05,09:20:01,034,040,049,3.2,3.7,4.1,28.5,62.0,1005.8,0.00,0,0.0,////,0.0,0,0.0,////,30.3,0.0,12.3,3.513
2013/09/05,09:30:01,027,027,027,4.9,4.9,5.0,28.6,61.5,1005.8,0.00,0,0.0,////,0.0,0,0.0,////,30.8,0.0,12.3,3.511
2013/09/05,09:40:01,022,031,037,3.5,3.9,4.2,28.5,62.6,1005.9,0.00,0,0.0,////,0.0,0,0.0,////,30.6,0.0,12.3,3.514
2013/09/05,09:50:01,344,020,040,0.9,1.6,2.4,28.6,61.2,1005.9,0.00,0,0.0,////,0.0,0,0.0,////,30.6,0.0,12.3,3.515
2013/09/05,10:00:01,019,027,036,2.3,2.6,3.1,28.9,62.0,1006.0,0.00,0,0.0,////,0.0,0,0.0,////,31.0,0.0,12.3,3.511
2013/09/05,10:10:01,007,014,024,3.4,3.5,3.6,28.9,59.1,1006.1,0.00,0,0.0,////,0.0,0,0.0,////,31.2,0.0,12.3,3.511
2013/09/05,10:20:01,007,023,035,3.1,3.2,3.4,29.5,60.6,1006.1,0.00,0,0.0,////,0.0,0,0.0,////,31.7,0.0,12.3,3.514
2013/09/05,10:30:01,027,029,032,4.1,4.5,4.9,29.0,59.3,1006.1,0.00,0,0.0,////,0.0,0,0.0,////,31.8,0.0,12.3,3.514
2013/09/05,10:40:01,019,020,022,3.9,4.3,4.5,29.2,61.3,1006.1,0.00,0,0.0,////,0.0,0,0.0,////,31.7,0.0,12.3,3.513
2013/09/05,10:50:01,024,028,035,4.2,4.7,5.0,28.8,61.3,1006.1,0.00,0,0.0,////,0.0,0,0.0,////,31.3,0.0,12.3,3.511
2013/09/05,11:00:01,029,034,043,2.3,3.0,3.6,29.4,59.7,1006.0,0.00,0,0.0,////,0.0,0,0.0,////,31.5,0.0,12.3,3.514
2013/09/05,11:10:01,032,034,035,4.8,5.0,5.2,29.5,60.5,1006.0,0.00,0,0.0,////,0.0,0,0.0,////,32.4,0.0,12.3,3.513
2013/09/05,11:20:01,350,358,005,2.6,3.0,3.2,29.5,59.6,1005.9,0.00,0,0.0,////,0.0,0,0.0,////,32.0,0.0,12.3,3.514
2013/09/05,11:30:01,354,017,031,3.0,3.4,3.8,29.3,58.5,1005.8,0.00,0,0.0,////,0.0,0,0.0,////,31.8,0.0,12.3,3.514
2013/09/05,11:40:01,012,014,016,4.6,4.9,5.1,29.6,57.3,1005.7,0.00,0,0.0,////,0.0,0,0.0,////,32.0,0.0,12.3,3.515
2013/09/05,11:50:01,359,006,011,5.4,5.7,5.9,29.5,54.5,1005.6,0.00,0,0.0,////,0.0,0,0.0,////,32.0,0.0,12.3,3.518
2013/09/05,12:00:01,012,038,052,3.4,3.5,3.7,29.8,57.8,1005.6,0.00,0,0.0,////,0.0,0,0.0,////,32.2,0.0,12.3,3.515
2013/09/05,12:10:01,015,018,023,4.4,4.8,5.3,29.6,56.6,1005.5,0.00,0,0.0,////,0.0,0,0.0,////,31.8,0.0,12.3,3.513
2013/09/05,12:20:01,015,027,039,2.4,3.0,3.5,29.7,55.0,1005.6,0.00,0,0.0,////,0.0,0,0.0,////,32.2,0.0,12.3,3.514
2013/09/05,12:30:01,009,010,011,4.3,4.5,4.8,29.7,54.7,1005.4,0.00,0,0.0,////,0.0,0,0.0,////,32.4,0.0,12.3,3.514
2013/09/05,12:40:01,016,024,032,3.9,4.2,4.5,29.6,57.1,1005.4,0.00,0,0.0,////,0.0,0,0.0,////,32.2,0.0,12.3,3.515
2013/09/05,12:50:01,008,012,015,5.6,5.7,5.9,29.7,57.5,1005.4,0.00,0,0.0,////,0.0,0,0.0,////,32.4,0.0,12.3,3.514
2013/09/05,13:00:01,004,010,013,4.1,4.5,4.8,29.6,59.0,1005.4,0.00,0,0.0,////,0.0,0,0.0,////,31.8,0.0,12.3,3.515
2013/09/05,13:10:01,009,027,041,2.9,3.7,4.5,29.5,56.2,1005.3,0.00,0,0.0,////,0.0,0,0.0,////,31.8,0.0,12.3,3.513
2013/09/05,13:20:01,003,006,010,3.0,3.3,3.6,29.6,55.7,1005.3,0.00,0,0.0,////,0.0,0,0.0,////,32.4,0.0,12.3,3.514
2013/09/05,13:30:01,032,037,039,4.0,4.4,4.8,29.3,56.7,1005.2,0.00,0,0.0,////,0.0,0,0.0,////,32.0,0.0,12.3,3.514
2013/09/05,13:40:01,014,020,030,3.1,3.8,4.6,29.3,55.5,1005.1,0.00,0,0.0,////,0.0,0,0.0,////,31.8,0.0,12.3,3.514
2013/09/05,13:50:01,021,024,026,5.2,5.4,5.6,29.5,54.1,1005.0,0.00,0,0.0,////,0.0,0,0.0,////,31.8,0.0,12.3,3.513
2013/09/05,14:00:01,021,028,035,4.1,4.4,4.7,29.4,54.0,1005.1,0.00,0,0.0,////,0.0,0,0.0,////,31.7,0.0,12.3,3.511
2013/09/05,14:10:01,018,024,031,4.6,4.8,5.1,29.4,56.4,1005.1,0.00,0,0.0,////,0.0,0,0.0,////,32.2,0.0,12.3,3.515
2013/09/05,14:20:01,017,023,028,4.4,4.5,4.8,29.4,57.1,1005.1,0.00,0,0.0,////,0.0,0,0.0,////,32.2,0.0,12.3,3.514
2013/09/05,14:30:01,011,026,039,2.7,2.8,3.0,29.3,56.7,1005.0,0.00,0,0.0,////,0.0,0,0.0,////,31.5,0.0,12.3,3.513
2013/09/05,14:40:01,019,022,026,3.2,3.4,3.6,29.0,54.9,1005.0,0.00,0,0.0,////,0.0,0,0.0,////,31.7,0.0,12.3,3.511
2013/09/05,14:50:01,038,058,071,1.1,1.4,1.6,29.2,54.5,1005.0,0.00,0,0.0,////,0.0,0,0.0,////,31.8,0.0,12.3,3.513
2013/09/05,15:00:01,010,018,023,2.7,2.9,3.0,28.9,56.5,1005.0,0.00,0,0.0,////,0.0,0,0.0,////,31.5,0.0,12.3,3.514
2013/09/05,15:10:01,359,016,038,2.3,3.0,3.6,28.9,56.2,1004.9,0.00,0,0.0,////,0.0,0,0.0,////,31.5,0.0,12.3,3.514
2013/09/05,15:20:01,042,053,070,2.5,2.7,2.9,28.7,55.8,1004.9,0.00,0,0.0,////,0.0,0,0.0,////,31.0,0.0,12.3,3.515
2013/09/05,15:30:01,033,035,037,4.4,4.6,5.0,28.9,54.6,1004.8,0.00,0,0.0,////,0.0,0,0.0,////,31.0,0.0,12.3,3.514
2013/09/05,15:40:01,005,018,026,1.8,2.4,3.0,28.9,54.1,1004.8,0.00,0,0.0,////,0.0,0,0.0,////,30.8,0.0,12.3,3.513
2013/09/05,15:50:01,044,049,054,2.5,3.5,4.2,28.8,57.4,1004.8,0.00,0,0.0,////,0.0,0,0.0,////,30.6,0.0,12.3,3.513
2013/09/05,16:00:01,357,009,016,1.8,2.0,2.1,28.6,57.3,1004.7,0.00,0,0.0,////,0.0,0,0.0,////,30.3,0.0,12.3,3.513
2013/09/05,16:10:01,001,010,024,2.5,3.1,3.4,28.8,57.7,1004.7,0.00,0,0.0,////,0.0,0,0.0,////,30.5,0.0,12.3,3.511
2013/09/05,16:20:01,035,042,054,1.8,1.9,2.2,28.4,58.4,1004.7,0.00,0,0.0,////,0.0,0,0.0,////,30.5,0.0,12.3,3.515
2013/09/05,16:30:01,017,028,042,1.8,2.0,2.3,28.4,57.8,1004.8,0.00,0,0.0,////,0.0,0,0.0,////,30.1,0.0,12.3,3.514
2013/09/05,16:40:01,041,047,053,2.5,3.2,3.7,28.1,57.2,1004.7,0.00,0,0.0,////,0.0,0,0.0,////,30.0,0.0,12.3,3.515
2013/09/05,16:50:01,030,035,039,2.6,2.8,3.0,28.2,57.8,1004.7,0.00,0,0.0,////,0.0,0,0.0,////,30.0,0.0,12.3,3.513
2013/09/05,17:00:01,016,026,033,1.8,1.9,2.0,28.2,59.0,1004.7,0.00,0,0.0,////,0.0,0,0.0,////,29.6,0.0,12.3,3.514
2013/09/05,17:10:01,044,047,048,2.4,2.6,2.8,28.0,59.2,1004.7,0.00,0,0.0,////,0.0,0,0.0,////,29.6,0.0,12.3,3.514
2013/09/05,17:20:01,031,039,044,1.6,1.8,2.1,28.0,57.7,1004.7,0.00,0,0.0,////,0.0,0,0.0,////,29.3,0.0,12.3,3.515
2013/09/05,17:30:01,016,018,022,2.7,2.7,2.9,28.0,61.0,1004.8,0.00,0,0.0,////,0.0,0,0.0,////,29.3,0.0,12.3,3.514
2013/09/05,17:40:01,334,355,014,0.9,1.5,2.2,27.8,60.3,1004.9,0.00,0,0.0,////,0.0,0,0.0,////,28.7,0.0,12.3,3.514
2013/09/05,17:50:01,012,015,018,2.3,2.9,3.4,27.7,61.4,1004.8,0.00,0,0.0,////,0.0,0,0.0,////,28.2,0.0,12.3,3.511
2013/09/05,18:00:01,026,030,035,1.5,1.8,2.0,27.6,62.1,1005.0,0.00,0,0.0,////,0.0,0,0.0,////,27.9,0.0,12.3,3.514
2013/09/05,18:10:01,013,017,021,1.6,1.7,1.8,27.5,61.2,1005.0,0.00,0,0.0,////,0.0,0,0.0,////,27.7,0.0,12.3,3.516
2013/09/05,18:20:01,353,354,355,0.9,1.7,2.4,27.4,62.2,1005.1,0.00,0,0.0,////,0.0,0,0.0,////,27.2,0.0,12.3,3.511
2013/09/05,18:30:01,359,359,359,1.7,1.9,2.1,27.2,62.6,1005.2,0.00,0,0.0,////,0.0,0,0.0,////,26.8,0.0,12.3,3.516
2013/09/05,18:40:01,007,016,027,1.5,1.8,2.1,27.0,59.9,1005.2,0.00,0,0.0,////,0.0,0,0.0,////,26.3,0.0,12.3,3.511
2013/09/05,18:50:01,340,349,356,1.3,1.6,2.1,26.9,62.2,1005.3,0.00,0,0.0,////,0.0,0,0.0,////,26.0,0.0,12.3,3.513
2013/09/05,19:00:01,355,002,009,1.8,2.0,2.2,26.9,62.3,1005.4,0.00,0,0.0,////,0.0,0,0.0,////,25.8,0.0,12.3,3.515
2013/09/05,19:10:01,006,011,018,1.7,2.1,2.3,26.9,62.4,1005.5,0.00,0,0.0,////,0.0,0,0.0,////,25.6,0.0,12.3,3.515
2013/09/05,19:20:01,001,005,012,1.5,1.8,2.0,26.8,62.5,1005.6,0.00,0,0.0,////,0.0,0,0.0,////,25.8,0.0,12.3,3.515
2013/09/05,19:30:01,015,019,024,2.3,2.4,2.6,26.8,62.2,1005.6,0.00,0,0.0,////,0.0,0,0.0,////,25.8,0.0,12.3,3.513
2013/09/05,19:40:01,014,014,014,3.0,3.3,3.6,26.9,62.6,1005.8,0.00,0,0.0,////,0.0,0,0.0,////,25.6,0.0,12.3,3.513
2013/09/05,19:50:01,357,001,009,1.2,1.5,2.0,26.8,63.6,1006.0,0.00,0,0.0,////,0.0,0,0.0,////,25.6,0.0,12.3,3.514
2013/09/05,20:00:01,355,001,005,3.6,3.8,4.1,26.8,66.1,1006.1,0.00,0,0.0,////,0.0,0,0.0,////,25.6,0.0,12.3,3.515
2013/09/05,20:10:01,345,351,355,1.6,1.7,1.9,26.8,65.4,1006.3,0.00,0,0.0,////,0.0,0,0.0,////,25.6,0.0,12.3,3.515
2013/09/05,20:20:01,325,337,355,1.9,2.2,2.5,26.8,66.4,1006.4,0.00,0,0.0,////,0.0,0,0.0,////,25.6,0.0,12.3,3.514